Location: Irma
(52.9170°N, 111.2330°W)
Time: 10:28:04
(UTC-06:00)

Daily predictions for brighter satellites

Satellite Brightness Start Highest point End
(mag) Time Altitude Azimuth Time Altitude Azimuth Time Altitude Azimuth
HJ-1C 3.4 20:11:28 10° SSE 20:14:53 83° ENE 20:18:19 10° NNW
Cosmos 2082 Rocket 2.9 20:10:01 10° NNW 20:15:24 39° NE 20:20:44 10° ESE
RESURS DK-1 2.4 20:11:20 10° NNW 20:15:30 81° NE 20:19:39 10° SE
SL-27 R/B 2.4 20:14:14 10° NNW 20:17:47 72° ENE 20:21:22 10° SSE
CZ-4B DEB 4.1 20:15:34 10° ESE 20:18:01 21° ENE 20:20:27 10° NNE
Meteor 1-4 Rocket 4.5 20:17:26 10° ESE 20:18:25 11° E 20:19:26 10° ENE
ALOS 2.4 20:14:39 10° SSE 20:19:19 83° WSW 20:24:03 10° NNW
Cosmos 1821 Rocket 4.1 20:13:21 10° S 20:19:36 58° E 20:25:48 10° NNE
Cosmos 1818 3.7 20:14:21 10° NW 20:19:47 62° NE 20:25:11 10° ESE
Cosmos 1766 4.0 20:16:53 10° SSE 20:20:19 31° E 20:23:47 10° NNE
GP-B 4.4 20:17:31 10° ESE 20:20:51 21° ENE 20:24:13 10° NNE
Cosmos 1812 Rocket 3.9 20:16:46 10° SSE 20:20:58 44° E 20:25:09 10° NNE
COSMOS 2487 3.9 20:18:41 10° N 20:21:34 22° NE 20:24:27 10° ESE
Resurs 01 Rocket 1.6 20:17:32 10° SSE 20:21:56 75° ENE 20:26:23 10° NNW
USA 267 3.5 20:15:36 10° E 20:22:06 69° NNE 20:28:36 10° WNW
COSMOS 2406 4.3 20:17:13 10° NW 20:22:45 49° WSW 20:28:14 10° S
Cosmos 482 Debris 2.5 20:22:43 10° W 20:24:44 63° S 20:26:22 11° ESE
ERS-1 Rocket 4.2 20:24:11 10° ESE 20:28:13 25° ENE 20:32:15 10° N
Cosmos 1937 Rocket 3.8 20:24:41 10° S 20:29:40 46° ESE 20:34:45 10° NE
Cosmos 1076 Rocket 4.2 20:27:38 10° N 20:31:35 35° ENE 20:35:29 10° SE
Lacrosse 5 3.2 20:29:41 10° S 20:33:16 20° SE 20:36:51 10° E
Cosmos 2228 3.7 20:29:45 10° SSW 20:33:58 60° WNW 20:38:11 10° N
Cosmos 1269 Rocket 4.4 20:30:04 10° NNW 20:35:10 46° NE 20:40:15 10° SE
Cosmos 1605 Rocket 4.3 20:31:37 10° SSE 20:37:32 46° E 20:43:35 10° NNE
Cosmos 2298 Rocket 4.0 20:32:20 10° S 20:37:34 63° ESE 20:42:51 10° NNE
Cosmos 2084 Rocket 3.1 20:34:19 10° SW 20:38:17 72° SE 20:42:09 10° NE
SeaSat 1 4.1 20:36:25 10° S 20:40:55 35° WSW 20:45:28 10° NW
Cosmos 1844 3.8 20:37:25 10° S 20:43:02 56° ESE 20:48:44 10° NE
Cosmos 2123 Rocket 4.0 20:37:05 10° N 20:43:28 85° E 20:49:47 10° S
Cosmos 405 3.4 20:41:13 10° SSW 20:44:43 67° WNW 20:48:16 10° N
Spot 1 4.3 20:41:21 10° SSE 20:46:00 72° ENE 20:50:57 10° NNW
Helios 1B rocket 3.1 20:45:24 10° NNE 20:49:12 33° E 20:52:57 10° SSE
CZ-3B DEB 3.1 20:40:42 10° SSW 20:50:00 42° SSE 20:54:17 12° E
CZ-2D R/B 3.4 20:46:38 10° S 20:50:30 79° WSW 20:54:25 10° NNW
Cosmos 1674 3.4 20:47:13 10° N 20:50:41 34° ENE 20:53:31 14° SE
ARGOS 4.5 20:48:14 13° E 20:51:31 22° NE 20:55:34 10° N
Cosmos 1805 3.7 20:53:16 10° SSE 20:56:55 40° E 21:00:37 10° NNE
Helios 1A 2.9 20:52:56 10° SSE 20:57:06 85° ENE 21:01:20 10° NNW
Timation 2 Rocket 4.1 20:53:00 10° NNW 20:59:27 64° NE 21:04:44 15° SE
Cosmos 1437 Rocket 3.2 20:56:03 10° SSW 21:00:04 70° WNW 21:04:11 10° N
Cosmos 1340 Rocket 3.7 20:57:00 10° N 21:00:41 32° ENE 21:02:52 19° ESE
Cosmos-2242 4.1 20:58:46 16° SE 21:00:52 23° E 21:04:15 10° NE
Lacrosse 4 Rocket 1.2 21:01:17 10° SSW 21:05:20 81° SE 21:09:27 10° NE
Meteor 1-22 Rocket 4.4 21:00:46 10° S 21:06:39 90° ESE 21:12:46 10° NNE
Cosmos 1470 3.9 21:09:00 22° ESE 21:10:00 24° E 21:13:16 10° NE
H-2A R/B 4.0 21:10:25 12° ENE 21:11:18 13° NE 21:13:07 10° NNE
Terra 3.8 21:13:03 12° ENE 21:14:28 13° NE 21:16:37 10° NNE
Cosmos 1758 3.2 21:17:13 10° S 21:21:09 62° E 21:25:07 10° NNE
YAOGAN 6 3.0 21:20:41 28° SE 21:22:16 46° ENE 21:25:53 10° N
Cosmos 1447 Rocket 4.5 21:16:52 10° N 21:23:03 87° W 21:29:12 10° S
Cosmos 158 Rocket 3.9 21:19:57 10° NNW 21:25:02 85° ENE 21:28:50 19° SSE
Cosmos 2344 3.7 21:18:06 10° SSW 21:25:45 71° SE 21:34:55 10° NE
Cosmos 2150 Rocket 4.4 21:20:58 10° SW 21:26:04 67° WNW 21:31:16 10° NNE
Cosmos 1844 Rocket 3.1 21:20:34 10° SW 21:26:12 65° NW 21:31:49 10° NNE
Cosmos 1408 Rocket 3.5 21:22:10 10° N 21:26:40 82° ENE 21:30:23 15° SSE
SJ-11-01 4.3 21:22:52 10° SSE 21:27:37 85° WSW 21:32:23 10° NNW
H-2A R/B 3.3 21:26:32 21° E 21:28:27 26° ENE 21:32:49 10° N
USA 215 3.7 21:22:45 10° ENE 21:28:47 38° SE 21:34:47 10° SSW
Cosmos 1939 Rocket 2.9 21:25:21 14° SSE 21:28:53 88° W 21:33:05 10° NNW
Abrixas 4.4 21:26:58 10° WSW 21:28:59 18° SSW 21:29:25 17° S
SS 2 4.5 21:26:14 10° NW 21:29:07 76° SW 21:29:54 44° SSE
Cosmos 1833 Rocket 2.7 21:24:40 10° NNW 21:30:20 85° WSW 21:34:23 20° SSE
USA 186 3.5 21:28:46 10° SSW 21:30:36 21° W 21:32:25 10° NW
Cosmos 1953 2.2 21:27:22 10° S 21:31:25 73° E 21:35:30 10° NNE
Cosmos 1328 4.4 21:28:47 10° N 21:32:33 37° ENE 21:33:19 34° E
Cosmos 494 Rocket 4.4 21:28:10 10° NNW 21:33:07 45° NE 21:35:15 29° ESE
Cosmos 1626 4.2 21:31:46 10° NNE 21:33:30 15° NE 21:33:30 15° NE
Cosmos 1733 3.7 21:34:00 37° ESE 21:34:32 39° E 21:38:11 10° NNE
Cosmos 2278 Rocket 2.1 21:29:59 10° SSW 21:35:39 77° ESE 21:41:22 10° NNE
NOAA 11 4.4 21:33:23 26° SE 21:36:17 52° ENE 21:41:37 10° N
SL-14 R/B 3.9 21:32:46 10° N 21:36:22 35° ENE 21:36:46 34° E
Cosmos 1459 Rocket 4.1 21:30:45 10° SSE 21:36:47 52° E 21:42:45 10° NNE
YAOGAN 11 4.3 21:36:56 31° SE 21:38:53 55° ENE 21:43:21 10° N
Cosmos 2173 Rocket 4.1 21:32:58 10° SSE 21:38:55 53° E 21:45:00 10° NNE
Cosmos 990 Rocket 4.4 21:34:08 10° SW 21:39:23 68° WNW 21:44:37 10° NNE
Envisat 3.3 21:35:15 10° S 21:40:18 66° WSW 21:45:23 10° NNW
Cosmos 1048 Rocket 4.4 21:40:32 10° NNW 21:45:37 59° WSW 21:49:27 17° S
Cosmos 1125 Rocket 3.4 21:42:03 10° S 21:47:10 60° ESE 21:52:19 10° NNE
Cosmos 2297 3.8 21:42:36 10° S 21:48:06 50° ESE 21:53:38 10° NE
Geosat 4.1 21:43:35 10° NNE 21:48:38 76° NW 21:53:39 10° SW
Lacrosse 5 rocket 1.2 21:46:05 10° WNW 21:50:04 68° SSW 21:50:52 50° SSE
Cosmos 1356 Rocket 3.6 21:46:30 10° N 21:50:36 51° ENE 21:51:13 47° ESE
MetOp-B 4.1 21:48:10 31° SE 21:50:45 67° ENE 21:56:06 10° NNW
Meteor 1-4 Rocket 2.7 21:49:35 10° SSW 21:53:02 69° WNW 21:56:33 10° N
Cosmos 1544 4.0 21:51:35 10° SSW 21:55:07 48° WNW 21:58:44 10° N
Meteor 1-29 3.5 21:51:44 10° N 21:55:09 60° WNW 21:58:35 10° SSW
Cosmos 1184 Rocket 2.8 21:52:02 10° N 21:55:23 66° ENE 21:55:23 66° ENE
COSMOS 2487 3.6 21:53:50 10° NW 21:57:13 41° WSW 21:58:42 26° SSW
GP-B 3.8 21:53:29 10° SSW 21:57:50 54° W 22:02:13 10° N
Resurs 01 Rocket 4.5 21:56:12 10° SW 21:58:57 16° W 22:01:45 10° NW
Cosmos 2082 Rocket 2.9 21:54:10 10° NW 21:59:41 51° WSW 22:03:31 19° S
Cosmos 1271 Rocket 2.6 22:03:26 56° SSE 22:04:11 75° ESE 22:08:14 10° NNE
USA 267 3.3 22:02:01 33° SE 22:05:09 72° SSW 22:11:43 10° WNW
ERS-1 Rocket 3.3 22:03:31 23° S 22:06:37 66° WSW 22:11:39 10° NNW
SL-08 RB Rocket 3.9 22:07:34 51° ESE 22:08:15 56° ENE 22:12:51 10° N
Cosmos 2151 2.9 22:04:07 10° N 22:08:23 61° ENE 22:08:36 60° E
Meteor 1-16 Rocket 4.5 22:07:13 40° SE 22:08:45 50° E 22:14:27 10° NNE
Cosmos 2016 Rocket 3.9 22:06:36 27° SSE 22:10:02 64° E 22:16:08 10° NNE
Cosmos 1703 4.3 22:06:33 10° N 22:09:29 32° NE 22:09:29 32° NE
Cosmos 2251 Rocket 3.4 22:05:56 10° NNW 22:11:16 81° ENE 22:12:48 48° SE
SPOT 1/Viking Rocket 3.6 22:10:27 48° ESE 22:11:39 61° ENE 22:16:49 10° N
Lacrosse 5 1.7 22:10:30 10° SW 22:15:33 69° SSE 22:16:45 50° E
Cosmos 1725 Rocket 4.1 22:14:34 43° SE 22:16:02 51° E 22:22:01 10° NNE
SPOT 5 3.0 22:17:05 43° SSE 22:18:58 89° WSW 22:24:20 10° NNW
USA 245 4.2 22:17:21 47° SE 22:18:58 76° ENE 22:25:01 10° NNW
Cosmos 2058 3.0 22:14:54 10° N 22:18:49 61° NE 22:18:49 61° NE
Timation 1 Rocket 4.3 22:14:27 10° SSW 22:20:29 89° ESE 22:26:34 10° NE
Tsikada Rocket 3.9 22:14:21 10° N 22:20:34 74° ENE 22:22:39 44° SSE
Cosmos 2100 Rocket 4.1 22:15:37 10° SSW 22:21:57 79° WNW 22:28:23 10° N
Helios 1B rocket 4.3 22:20:47 10° N 22:24:29 32° WNW 22:28:10 10° SW
Sich 1 4.4 22:21:10 10° N 22:24:11 28° NE 22:24:11 28° NE
Meteor 2-17 Rocket 4.3 22:23:37 30° S 22:26:49 79° E 22:32:59 10° NNE
Fregat R/B Cluster 11 3.8 22:24:10 10° SW 22:28:16 82° NW 22:31:51 10° NE
SL-08 R/B 4.4 22:26:41 37° S 22:29:24 74° E 22:35:49 10° NNE
ARGOS 3.1 22:29:44 49° S 22:31:14 81° WSW 22:36:38 10° NNW
Landsat 7 3.9 22:36:10 63° ENE 22:36:10 63° ENE 22:40:47 10° N
Cosmos-2242 4.0 22:35:32 20° SW 22:38:12 45° WNW 22:42:19 10° N
Cosmos 1802 Rocket 4.1 22:34:35 17° SSW 22:39:29 74° WNW 22:45:42 10° N
Cosmos 1867 3.4 22:38:05 10° SW 22:43:33 78° SE 22:49:02 10° NE
Cosmos 1500 Rocket 4.3 22:39:27 10° NNW 22:43:38 47° W 22:44:13 44° WSW
Lacrosse 4 Rocket 3.8 22:41:21 10° W 22:44:33 22° NNW 22:47:48 10° NNE
Cosmos 1470 4.2 22:44:19 26° WSW 22:45:58 37° WNW 22:49:42 10° N
H-2A R/B 2.5 22:47:32 53° N 22:47:32 53° N 22:50:47 10° NNW
Cosmos 1805 Rocket 4.1 22:42:16 10° N 22:45:47 51° NNE 22:45:47 51° NNE
Cosmos 2061 Rocket 4.5 22:41:29 10° SSW 22:47:49 62° WNW 22:54:14 10° N
Terra 2.1 22:51:55 57° NE 22:51:55 57° NE 22:56:05 10° N
Cosmos 2221 4.0 22:57:23 29° NNE 22:57:23 29° NNE 22:59:38 10° NNE
Cosmos 2346 Rocket 4.3 22:50:53 10° N 22:57:07 84° E 22:57:55 69° SSE
Cosmos 2369 Rocket 4.1 23:04:02 16° NE 23:04:02 16° NE 23:05:17 10° NE
CZ-3B DEB 2.1 22:55:52 10° WSW 23:01:57 62° W 23:01:57 62° W
Cosmos 2227 Rocket 4.2 23:03:19 10° NNW 23:07:20 19° NNE 23:09:15 16° NE
H-2A R/B 2.2 23:07:10 65° SW 23:07:30 67° WSW 23:12:50 10° NNW
Cosmos 1626 3.9 23:06:04 10° NNW 23:08:12 31° NNW 23:08:12 31° NNW
USA 215 3.1 23:07:05 17° ENE 23:12:19 87° SSE 23:18:53 10° WSW
Nimbus 7 Rocket 4.5 23:13:46 10° NNE 23:19:39 74° WNW 23:20:35 61° SW
Cosmos 2278 Rocket 4.1 23:15:24 10° W 23:20:20 29° NW 23:25:18 10° NNE
Cosmos 2233 Rocket 3.8 23:26:10 84° WSW 23:26:19 85° W 23:32:30 10° N
Lacrosse 5 rocket 4.1 23:26:23 10° W 23:26:35 11° W 23:26:35 11° W
Cosmos 2219 3.9 23:36:46 10° NNW 23:41:35 46° NNE 23:41:35 46° NNE
Cosmos 1943 Rocket 4.2 23:47:14 17° NE 23:47:14 17° NE 23:48:31 10° NE
ATLAS 5 CENTAUR R/B 4.0 23:47:36 19° NE 23:47:36 19° NE 23:49:07 10° NE
USA 267 4.5 23:49:22 28° WSW 23:49:22 28° WSW 23:54:26 10° WNW
